Weather History for Shannon, Ireland

Change the Weather History Date:

Wednesday, January 16, 2013

  Actual Average Record
Temperature  
Mean Temperature 43 °F -  
Max Temperature 47 °F 47 °F 53 °F (2002)
Min Temperature 39 °F 37 °F 26 °F (2001)
Degree Days  
Heating Degree Days 22    
Moisture  
Dew Point 42 °F    
Average Humidity 96    
Maximum Humidity 100    
Minimum Humidity 87    
Precipitation  
Precipitation 0.08 in 0.11 in - ()
Sea Level Pressure  
Sea Level Pressure 29.75 in    
Wind  
Wind Speed 10 mph ()    
Max Wind Speed 15 mph    
Max Gust Speed -    
Visibility 4.5 miles    
Events Rain    
Averages and records for this station are not official NWS values.
T = Trace of Precipitation, MM = Missing Value Source: Averaged Metar Reports

Daily Weather History Graph

Daily Weather History Graph

Search for Another Location

Airport:

Trip Planner

Search our weather history database for the weather conditions in past years. The results will help you decide how hot, cold, wet, or windy it might be!

Date:

Astronomy

Jan. 16, 2013 Rise Set
Actual Time 8:38 AM GMT 4:52 PM GMT
Civil Twilight 7:59 AM GMT 5:32 PM GMT
Nautical Twilight 7:16 AM GMT 6:15 PM GMT
Astronomical Twilight 6:35 AM GMT 6:56 PM GMT
Moon 10:19 AM GMT (1/16) 11:23 PM GMT (1/16)
Length of Visible Light 9h 33m
Length of Day
8h 13m
Waxing Crescent, 26% of the Moon is Illuminated
Jan 16
Waxing Crescent
Jan 18
First Quarter
Jan 27
Full
Feb 3
Last Quarter
Feb 10
New

Hourly Weather History & Observations

Time (GMT) Temp. Windchill Dew Point Humidity Pressure Visibility Wind Dir Wind Speed Gust Speed Precip Events Conditions
12:00 AM 40 °F - 38 °F 90% 29.68 in 7 mi East 13.4 mph - - Rain Light Rain
12:00 AM 41.0 °F 33.9 °F 37.4 °F 87% 29.65 in 6.2 mi East 12.7 mph - N/A Rain Light Rain
12:30 AM 41.0 °F 33.1 °F 37.4 °F 87% 29.65 in 6.2 mi ESE 15.0 mph - N/A Rain Light Rain
1:00 AM 39.2 °F 31.2 °F 37.4 °F 93% 29.65 in 6.2 mi ESE 13.8 mph - N/A Rain Light Rain
1:30 AM 39.2 °F 31.6 °F 37.4 °F 93% 29.65 in 6.2 mi ESE 12.7 mph - N/A Rain Light Rain
2:00 AM 39.2 °F 31.2 °F 37.4 °F 93% 29.68 in 6.2 mi ESE 13.8 mph - N/A Rain Light Rain
2:30 AM 39.2 °F 32.0 °F 37.4 °F 93% 29.68 in 6.2 mi ESE 11.5 mph - N/A   Overcast
3:00 AM 39.2 °F 31.6 °F 37.4 °F 93% 29.68 in 6.2 mi ESE 12.7 mph - N/A   Mostly Cloudy
3:30 AM 39.2 °F 31.6 °F 37.4 °F 93% 29.68 in 6.2 mi ESE 12.7 mph - N/A   Mostly Cloudy
4:00 AM 41.0 °F 34.7 °F 37.4 °F 87% 29.68 in 6.2 mi ESE 10.4 mph - N/A   Mostly Cloudy
4:30 AM 41.0 °F 34.3 °F 39.2 °F 93% 29.68 in 6.2 mi ESE 11.5 mph - N/A   Mostly Cloudy
5:00 AM 41.0 °F 34.7 °F 39.2 °F 93% 29.68 in 6.2 mi ESE 10.4 mph - N/A   Mostly Cloudy
5:30 AM 41.0 °F 35.2 °F 39.2 °F 93% 29.68 in 6.2 mi ESE 9.2 mph - N/A   Overcast
6:00 AM 40 °F - 39 °F 94% 29.70 in 7 mi ESE 4.5 mph - - Rain Light Rain
6:00 AM 41.0 °F 34.7 °F 39.2 °F 93% 29.68 in 6.2 mi ESE 10.4 mph - N/A Rain Light Rain
6:30 AM 41.0 °F 34.3 °F 39.2 °F 93% 29.68 in 6.2 mi ESE 11.5 mph - N/A   Mostly Cloudy
7:00 AM 41.0 °F 34.3 °F 39.2 °F 93% 29.71 in 6.2 mi ESE 11.5 mph - N/A   Light Drizzle
7:30 AM 41.0 °F 34.3 °F 39.2 °F 93% 29.71 in 6.2 mi ESE 11.5 mph - N/A   Light Drizzle
8:00 AM 41.0 °F 35.2 °F 39.2 °F 93% 29.71 in 6.2 mi SE 9.2 mph - N/A   Mostly Cloudy
8:30 AM 41.0 °F 35.2 °F 41.0 °F 100% 29.71 in 5.0 mi SE 9.2 mph - N/A   Light Drizzle
9:00 AM 41.0 °F 34.7 °F 41.0 °F 100% 29.74 in 5.0 mi ESE 10.4 mph - N/A   Light Drizzle
10:00 AM 42.8 °F 37.5 °F 41.0 °F 93% 29.77 in 1.9 mi SE 9.2 mph - N/A   Light Drizzle
10:30 AM 42.8 °F 38.0 °F 42.8 °F 100% 29.77 in 1.9 mi SE 8.1 mph - N/A   Light Drizzle
11:00 AM 42.8 °F 37.0 °F 42.8 °F 100% 29.77 in 1.9 mi SE 10.4 mph - N/A   Light Drizzle
11:30 AM 42.8 °F 36.6 °F 42.8 °F 100% 29.77 in 1.9 mi SSE 11.5 mph - N/A   Light Drizzle
12:00 PM 44 °F - 44 °F 98% 29.77 in 2 mi SSE 8.9 mph - - Rain Light Drizzle
12:00 PM 44.6 °F 39.7 °F 44.6 °F 100% 29.77 in 1.9 mi SSE 9.2 mph - N/A   Light Drizzle
12:30 PM 44.6 °F 39.2 °F 44.6 °F 100% 29.77 in 1.9 mi SE 10.4 mph - N/A   Light Drizzle
1:00 PM 44.6 °F 39.2 °F 44.6 °F 100% 29.77 in 1.9 mi SE 10.4 mph - N/A   Light Drizzle
1:30 PM 44.6 °F 39.2 °F 44.6 °F 100% 29.77 in 1.4 mi SSE 10.4 mph - N/A   Light Drizzle
2:00 PM 46.4 °F 41.9 °F 46.4 °F 100% 29.74 in 1.6 mi SSE 9.2 mph - N/A   Light Drizzle
2:30 PM 46.4 °F 42.4 °F 46.4 °F 100% 29.74 in 1.6 mi South 8.1 mph - N/A   Light Drizzle
3:00 PM 46.4 °F 42.4 °F 46.4 °F 100% 29.77 in 1.9 mi SSW 8.1 mph - N/A   Light Drizzle
3:30 PM 48.2 °F - 48.2 °F 100% 29.77 in 4.3 mi WSW 11.5 mph - N/A   Mostly Cloudy
4:00 PM 48.2 °F - 46.4 °F 93% 29.77 in 6.2 mi West 11.5 mph - N/A   Mostly Cloudy
4:30 PM 46.4 °F 41.5 °F 46.4 °F 100% 29.77 in 6.2 mi West 10.4 mph - N/A   Mostly Cloudy
5:00 PM 46.4 °F 40.7 °F 46.4 °F 100% 29.80 in 6.2 mi West 12.7 mph - N/A   Mostly Cloudy
5:30 PM 46.4 °F 42.4 °F 46.4 °F 100% 29.80 in 1.9 mi West 8.1 mph - N/A   Light Drizzle
6:00 PM 47 °F - 46 °F 97% 29.82 in 2 mi West 8.9 mph - - Rain Light Drizzle
6:00 PM 46.4 °F 41.9 °F 46.4 °F 100% 29.80 in 1.9 mi West 9.2 mph - N/A   Light Drizzle
6:30 PM 46.4 °F 41.9 °F 44.6 °F 93% 29.80 in 6.2 mi NW 9.2 mph - N/A   Light Drizzle
7:00 PM 46.4 °F 42.9 °F 44.6 °F 93% 29.80 in 6.2 mi WNW 6.9 mph - N/A   Mostly Cloudy
7:30 PM 44.6 °F 42.2 °F 44.6 °F 100% 29.83 in 6.2 mi WNW 4.6 mph - N/A   Mostly Cloudy
8:00 PM 44.6 °F 43.1 °F 44.6 °F 100% 29.83 in 6.2 mi WSW 3.5 mph - N/A   Mostly Cloudy
8:30 PM 44.6 °F 43.1 °F 44.6 °F 100% 29.83 in 1.9 mi West 3.5 mph - N/A   Light Drizzle
9:00 PM 44.6 °F 43.1 °F 44.6 °F 100% 29.83 in 1.7 mi West 3.5 mph - N/A   Light Drizzle
9:30 PM 44.6 °F 42.2 °F 44.6 °F 100% 29.83 in 2.5 mi West 4.6 mph - N/A   Light Drizzle
10:00 PM 44.6 °F 40.7 °F 44.6 °F 100% 29.86 in 1.9 mi West 6.9 mph - N/A   Light Drizzle
10:30 PM 44.6 °F 41.4 °F 44.6 °F 100% 29.86 in 6.2 mi West 5.8 mph - N/A   Light Drizzle
11:00 PM 44.6 °F 42.2 °F 44.6 °F 100% 29.86 in 6.2 mi West 4.6 mph - N/A   Mostly Cloudy
11:30 PM 44.6 °F - 42.8 °F 93% 29.86 in 6.2 mi NW 2.3 mph - N/A   Mostly Cloudy